Retour au catalogue

ELISA E24

ActifMilitaireSSO
NORAD 38008·PAYLOAD·🇫🇷 France

Lancé Dec 17, 2011 depuis Guiana Space Centre

Loading…

Prochains Passages (prochaines 24 heures)

TLE

FraisSource: Space-Track

Époque: Sep 14, 2026, 13:43 UTC

1 38008U 11076B   26257.57184352  .00000356  00000-0  41914-4 0  9998
2 38008  97.6513 275.4250 0001673  70.2100 289.9299 14.90481983792153

Suivez ELISA E24 en temps réel avec AllMySat

Download on the App Store